{"data":{"norad_id":48298,"epoch":"2026-05-25T04:48:44.104608Z","epoch_age_seconds":53737,"freshness":"FRESH","line1":"1 48298U 21036Y   26145.20051047  .00046202  00000+0  14188-2 0  9997","line2":"2 48298  53.1586  79.4061 0001570 111.4977 248.6192 15.33295271280135","mean_motion":15.33295271,"eccentricity":0.000157,"inclination_deg":53.1586,"raan_deg":79.4061,"arg_perigee_deg":111.4977,"mean_anomaly_deg":248.6192,"bstar":0.0014188,"rev_number":28013,"period_min":93.915374764108,"perigee_km":464.91417115595,"apogee_km":467.06322662541,"semimajor_km":6844.1256988907,"source":"CELESTRAK","updated_at":"2026-05-25T13:38:16.675663Z"}}